Location: Wells
(51.2093°N, 2.6446°W)
Time: 13:55:56
(UTC+01:00)

STARS - Pass Details

Date: 18 March 2026
Orbit: 575 x 588 km, 98.2° (Epoch: 14 April)

Event Time Altitude Azimuth Distance (km) Brightness Sun altitude
Rises 02:31:13 0° 13° (NNE) 2,802 ? -32.6°
Reaches altitude 10° 02:33:23 10° 12° (NNE) 1,898 ? -32.3°
Enters shadow 02:34:48 21° 11° (N) 1,323 ? -32.2°
